Temperature
26 25 24 23 22 22 21 21 21 20 20 20 20 20 20 20 20 20 20 19 19 19 19 19 19 19 19 19 19 19 19 19 19 19 19 19 20 20 20 20 20 19 19
26 25 24 24 23 22 21 21 21 21 20 20 20 20 20 20 20 20 20 19 19 19 19 19 19 19 19 19 19 19 19 19 19 19 19 19 19 20 20 20 20 20 19
26 25 24 24 23 22 21 21 21 21 20 20 20 20 20 20 20 20 20 19 19 19 19 19 19 19 19 19 19 19 19 19 19 19 19 19 19 19 20 20 20 20 19
26 25 24 24 23 23 22 21 21 21 20 20 20 20 20 20 20 20 20 19 19 19 19 19 19 19 19 19 19 19 19 19 19 19 19 19 19 19 19 20 20 20 19
27 26 25 24 24 23 22 21 21 21 21 20 20 20 20 20 20 20 20 19 19 19 19 19 19 19 19 19 19 19 19 19 18 19 19 19 19 19 19 19 19 19 19
27 26 25 24 24 23 22 22 21 21 21 20 20 20 20 20 20 20 20 19 19 19 19 19 19 19 19 18 18 18 18 18 18 19 19 19 19 19 19 19 19 19 19
28 27 26 25 24 23 23 22 21 21 21 21 20 20 20 20 20 20 19 19 19 19 19 19 19 19 19 18 18 18 18 18 18 18 18 18 18 18 19 19 19 19 19
28 27 26 25 24 24 23 22 22 21 21 21 20 20 20 20 19 19 19 19 19 19 19 19 19 18 18 18 18 18 18 18 18 18 18 18 18 18 18 18 18 18 18
28 28 27 26 25 24 23 23 22 21 21 21 20 20 20 20 19 19 19 19 19 19 19 19 18 18 18 18 18 18 18 18 18 18 18 18 18 18 18 18 18 18 18
28 27 27 26 25 24 23 23 22 21 21 21 20 20 20 20 20 19 19 19 19 19 18 18 18 18 18 18 18 18 18 18 18 18 18 18 18 18 18 17 18 18 17
28 27 27 26 25 24 23 23 22 21 21 20 20 20 20 20 19 19 19 19 19 19 18 18 18 18 18 17 17 17 17 17 17 17 17 17 17 17 17 17 17 17 17
28 27 26 26 25 24 24 23 22 21 21 20 20 19 19 19 19 19 19 19 19 18 18 18 18 18 17 17 17 17 17 17 17 17 17 17 17 17 17 17 16 16 16
27 27 26 25 25 24 24 23 22 21 21 20 19 19 19 19 19 19 19 19 18 18 18 18 18 18 18 17 17 17 17 17 16 16 16 16 16 16 16 16 16 16 16
27 26 25 25 24 24 23 23 22 21 21 20 19 19 19 19 19 18 18 18 18 18 18 18 17 17 17 17 17 17 17 16 16 16 16 16 16 16 16 15 15 15 15
26 25 25 24 23 23 23 22 21 21 20 20 19 19 19 18 18 18 18 18 18 18 17 17 17 17 17 17 17 17 16 16 16 16 16 16 16 16 15 15 15 15 15
25 25 24 23 23 23 22 22 21 21 20 20 19 19 18 18 18 18 18 18 18 17 17 17 17 17 17 17 17 17 16 16 16 16 16 15 15 15 15 15 15 15 15
25 24 23 23 22 22 21 21 21 20 20 19 19 19 18 18 18 18 18 18 17 17 17 17 17 17 17 17 16 16 16 16 16 15 15 15 15 15 15 15 15 14 14
24 24 23 22 22 21 21 20 20 20 19 19 19 18 18 18 18 18 18 17 17 17 17 17 17 17 17 17 16 16 16 16 15 15 15 15 15 15 14 14 14 14 14
24 23 23 22 21 21 20 20 19 19 19 18 18 18 18 18 18 17 17 17 17 17 17 17 16 16 16 16 16 16 15 15 15 15 15 14 14 14 14 14 14 14 14
23 22 22 21 21 20 20 19 19 19 18 18 18 18 17 17 17 17 17 17 17 17 16 16 16 16 16 16 16 15 15 15 14 14 14 14 14 14 14 13 13 13 13
22 22 21 21 20 20 19 19 19 19 18 18 18 17 17 17 17 17 17 16 16 16 16 16 16 16 16 16 15 15 15 14 14 14 14 14 14 14 13 13 13 13 13
21 21 20 20 19 19 19 18 18 18 18 17 17 17 17 17 17 17 16 16 16 16 16 16 16 16 15 15 15 15 14 14 14 13 13 13 13 13 13 13 13 13 12
20 20 19 19 18 18 18 18 18 17 17 17 17 17 17 17 17 16 16 16 16 15 15 15 15 15 15 14 14 14 14 14 13 13 13 13 13 13 13 12 12 12 12
20 19 19 18 17 17 17 17 17 17 17 16 16 16 16 16 16 16 16 16 15 15 15 15 15 14 14 14 14 14 13 13 13 12 12 12 12 12 12 12 12 12 12
19 18 18 17 17 17 16 16 16 16 16 16 16 16 16 16 16 16 16 16 16 15 15 15 15 14 14 14 14 14 13 13 12 12 12 12 12 12 12 12 11 11 11
18 18 17 17 17 16 16 16 16 16 16 15 15 15 15 16 16 16 15 15 15 15 15 15 14 14 14 14 13 13 13 12 12 12 11 11 11 11 11 11 11 11 11
Wind_Speed
13 12 12 12 12 10 9 8 8 7 5 4 4 4 3 3 3 3 4 4 3 2 2 2 1 1 0 0 2 1 2 2 2 1 2 4 3 4 3 3 2 3 5
13 12 12 12 12 11 10 9 7 8 7 5 4 3 3 3 3 1 3 3 3 2 2 1 2 1 1 1 1 2 2 2 1 1 1 2 2 3 3 3 3 3 2
15 13 12 12 12 11 11 10 8 7 7 6 4 3 2 2 2 2 2 3 3 2 1 1 1 1 1 1 2 2 2 2 2 1 1 1 1 2 2 1 2 2 2
15 15 14 12 12 12 11 9 9 8 7 6 5 5 4 3 3 2 2 2 2 2 1 1 1 2 1 0 3 1 2 2 2 2 1 2 1 1 1 2 1 1 2
14 15 15 13 12 12 12 10 8 7 7 5 5 5 4 3 2 2 2 3 2 2 1 1 0 1 1 1 2 1 2 2 2 2 2 2 2 3 2 2 2 2 1
13 13 12 12 11 11 11 11 10 8 7 6 6 5 4 3 2 2 2 2 2 2 2 2 1 1 1 1 1 1 1 2 2 3 2 2 1 1 1 2 2 2 2
12 12 12 11 11 11 11 11 11 10 8 7 5 5 4 4 3 3 3 3 2 2 2 2 2 1 1 1 0 1 2 1 2 2 3 2 2 1 1 1 2 2 2
12 12 12 11 11 11 11 11 11 10 9 8 6 5 5 4 3 3 2 3 2 2 3 3 2 2 1 1 1 1 1 1 2 2 2 2 3 2 1 2 2 2 2
9 10 10 11 11 10 10 10 10 9 9 8 7 6 5 4 3 3 3 2 2 2 2 3 2 2 2 2 1 1 1 1 1 2 2 2 3 3 2 2 1 2 2
9 9 8 8 9 10 9 9 10 9 8 7 6 6 5 5 3 3 2 2 1 1 2 2 2 2 2 2 1 1 0 0 1 1 2 3 3 3 3 2 2 2 2
7 7 7 7 8 9 10 10 10 9 8 7 6 5 6 5 5 3 3 2 2 2 2 2 2 2 3 2 2 2 1 1 1 2 1 2 2 3 3 3 3 2 2
6 6 6 5 6 7 9 10 10 10 9 8 7 6 6 5 5 5 3 3 3 2 2 2 2 3 3 2 2 2 1 1 0 1 1 2 2 2 3 3 4 3 2
5 5 5 4 5 5 5 7 9 10 10 9 8 7 6 6 5 5 4 4 3 3 3 3 3 3 2 2 2 1 1 1 1 1 1 1 1 2 2 2 3 3 3
4 4 4 3 3 3 4 5 6 7 8 8 8 7 7 6 6 5 5 4 4 4 4 3 3 3 3 2 2 2 2 1 1 1 1 1 1 1 3 3 3 3 3
5 4 3 3 2 2 4 4 4 5 6 7 7 7 6 5 5 5 5 4 4 4 3 3 3 3 3 3 3 2 3 2 2 1 1 0 1 1 2 3 3 3 3
3 4 3 3 3 3 4 4 4 5 5 6 6 6 5 5 5 5 5 4 4 4 3 3 3 3 4 2 3 3 2 2 2 2 1 2 1 1 1 2 3 3 3
2 3 2 3 3 3 3 4 4 5 5 5 5 5 6 5 5 6 5 5 4 4 4 4 4 3 2 2 3 3 2 2 2 2 2 3 1 1 1 2 2 3 4
1 2 2 2 3 3 3 3 4 4 5 5 5 5 6 6 5 5 5 5 4 4 4 4 4 3 3 4 3 2 2 2 2 2 1 1 1 2 2 2 2 3 3
2 2 2 2 3 2 2 3 3 4 5 5 5 5 5 5 5 5 5 4 4 4 4 4 4 4 3 4 4 3 2 2 2 2 1 1 0 1 2 2 2 3 3
3 3 2 3 4 3 2 2 3 3 3 4 4 4 5 5 5 5 4 4 3 4 4 3 4 4 4 4 4 3 3 3 2 2 1 1 1 1 0 2 3 3 4
4 4 3 3 3 3 3 1 2 2 2 3 3 3 4 4 5 4 4 4 4 4 4 4 4 4 5 5 6 4 2 2 2 2 2 1 3 2 2 2 3 4 5
4 3 3 3 3 2 2 1 1 0 1 2 3 3 3 4 4 3 4 4 4 4 4 4 4 3 4 5 5 5 3 3 2 1 1 2 2 2 3 3 5 6 5
2 3 3 3 3 2 1 1 1 1 1 2 2 3 3 3 3 4 4 4 4 4 4 3 3 3 2 3 6 6 3 2 1 1 1 2 4 3 4 6 6 5 4
2 2 2 2 1 1 1 0 0 1 1 2 2 2 3 3 3 3 4 4 4 4 3 3 3 3 3 3 2 3 2 2 1 1 2 4 6 5 4 4 4 4 3
1 1 1 2 1 1 0 0 0 1 2 2 2 3 3 3 2 2 1 2 2 3 3 2 2 2 3 3 4 2 2 2 1 1 2 3 3 3 2 2 1 1 2
1 0 1 2 2 1 1 0 1 1 1 2 3 3 3 2 3 3 1 4 2 2 3 2 2 2 4 6 5 3 2 3 3 2 3 3 3 2 2 2 2 2 2
Wind_Direction
171 171 175 168 165 164 165 170 173 166 178 189 189 199 201 206 197 191 170 168 193 201 232 292 314 302 278 279 281 263 253 240 227 245 286 281 262 223 198 204 193 176 179
166 173 178 176 171 166 167 170 176 172 185 186 189 198 203 212 201 192 149 171 182 208 216 224 274 271 231 227 278 274 263 262 233 212 268 295 302 278 227 191 196 198 187
171 173 182 181 173 170 173 178 177 172 184 184 188 204 190 220 219 178 169 170 170 204 248 189 277 295 242 203 255 264 263 256 264 218 219 243 273 292 275 230 190 185 198
171 175 182 182 179 176 174 166 166 171 180 189 193 199 200 211 211 190 175 163 163 197 203 197 254 297 309 288 274 199 274 270 271 260 226 226 219 248 296 300 272 199 217
172 176 179 179 181 177 175 169 166 174 178 185 194 202 210 210 198 176 167 175 171 194 184 180 233 298 324 332 343 359 323 301 295 294 279 270 240 228 221 269 288 282 241
169 172 175 171 178 178 176 172 165 173 179 187 196 195 209 210 194 188 176 187 183 177 170 172 189 244 299 322 336 310 295 294 311 314 303 300 301 292 260 262 269 274 276
166 168 172 174 178 178 177 171 166 172 177 183 189 189 200 201 207 211 192 193 193 171 178 192 163 189 208 240 258 264 291 287 293 296 299 303 295 283 269 274 278 279 279
168 170 171 171 175 176 172 169 167 172 177 181 185 186 193 205 206 206 206 183 196 179 168 175 168 181 201 234 213 261 265 282 285 294 305 301 301 306 276 257 263 283 302
157 163 168 169 172 173 170 170 165 170 176 182 183 185 184 191 201 194 203 196 199 195 154 165 173 186 208 235 218 239 311 344 317 309 313 309 303 307 311 303 278 261 277
155 155 160 165 168 173 171 164 161 169 175 177 185 182 180 180 186 201 194 182 188 172 161 172 176 188 204 210 230 247 256 355 318 304 350 336 326 336 329 331 328 320 282
144 149 153 160 165 170 171 168 165 167 171 175 175 176 179 182 183 189 178 171 182 194 181 177 179 201 221 215 203 238 237 225 279 313 341 339 333 336 335 342 331 337 336
144 142 143 151 161 167 168 169 171 173 174 173 172 179 179 180 183 182 176 173 176 195 182 180 191 212 215 216 215 237 248 254 282 319 339 331 330 350 339 335 331 337 328
125 135 142 154 157 159 163 169 175 176 176 173 173 179 183 183 182 178 175 178 183 194 191 190 199 219 227 215 215 217 229 262 294 302 311 316 344 336 325 318 322 325 323
117 119 121 117 131 148 151 166 175 176 178 175 175 179 186 185 183 179 178 181 185 193 194 203 210 211 210 206 204 215 211 211 251 264 278 297 327 324 322 315 321 310 309
128 118 112 116 147 156 154 159 173 177 178 172 179 184 186 184 182 180 182 183 192 203 192 204 218 212 204 212 195 213 211 199 217 229 230 169 82 334 314 307 324 323 309
138 135 132 136 179 180 165 163 175 169 167 174 181 176 178 184 187 183 187 188 194 203 199 208 215 225 232 200 164 190 226 209 210 212 227 200 167 142 322 337 328 305 289
140 127 154 165 171 168 163 172 169 159 160 174 179 175 180 186 190 193 189 197 198 202 205 208 211 207 193 142 144 167 208 227 213 219 249 274 235 79 329 301 303 309 287
132 118 166 137 140 145 159 167 168 161 170 178 183 183 186 189 188 193 198 200 200 207 213 214 209 194 185 169 164 177 206 231 225 222 249 275 346 338 354 320 335 313 302
84 100 107 122 118 119 136 154 167 174 182 185 187 189 190 193 190 195 200 199 202 208 215 210 197 183 181 184 174 175 213 229 237 222 248 242 132 45 360 309 305 311 314
65 70 79 96 108 116 130 168 177 177 189 188 190 193 192 197 197 197 197 198 205 212 217 207 183 174 174 180 173 188 215 221 227 202 173 121 149 157 0 297 297 296 302
63 65 65 87 101 119 140 189 195 191 200 185 179 189 195 200 196 193 194 197 213 217 213 195 182 181 172 176 178 183 237 247 233 216 206 172 161 187 215 275 286 279 288
67 60 56 66 87 113 131 155 191 190 156 171 184 190 196 213 202 192 200 208 219 213 208 194 190 183 157 159 168 179 215 298 284 257 208 139 158 210 237 256 266 277 289
83 72 70 65 60 54 74 139 171 175 186 200 214 207 202 210 201 196 202 204 212 214 212 196 197 183 158 161 171 186 206 273 286 288 221 186 210 231 245 244 253 268 269
98 94 98 99 74 43 25 77 149 177 207 219 222 207 209 218 215 207 203 204 210 217 213 207 211 185 173 163 168 197 215 236 264 285 267 229 237 253 258 252 250 246 261
85 98 128 128 131 127 59 267 189 187 233 239 235 226 221 214 203 180 202 200 201 211 208 217 194 174 179 172 164 169 197 231 232 237 256 255 251 245 242 248 262 269 264
153 187 165 155 154 153 169 218 204 190 220 244 247 239 227 200 189 168 113 39 56 85 107 108 148 150 148 152 157 175 200 212 182 186 241 252 253 255 259 249 244 241 251
Height
1509 1513 1516 1518 1520 1523 1525 1526 1528 1530 1532 1534 1535 1537 1538 1540 1541 1541 1542 1543 1543 1543 1543 1543 1543 1543 1543 1543 1543 1542 1543 1543 1543 1543 1543 1543 1543 1543 1543 1544 1545 1545 1544
1507 1511 1514 1516 1518 1520 1522 1525 1527 1528 1530 1532 1534 1535 1537 1538 1539 1540 1541 1541 1542 1542 1542 1542 1542 1542 1541 1541 1541 1541 1541 1541 1542 1542 1542 1542 1543 1541 1542 1542 1543 1543 1543
1502 1508 1511 1514 1516 1518 1520 1523 1525 1527 1529 1531 1532 1534 1535 1536 1538 1538 1539 1539 1540 1540 1541 1541 1541 1541 1540 1540 1540 1540 1540 1540 1540 1540 1541 1542 1541 1541 1541 1541 1541 1541 1541
1499 1503 1507 1511 1513 1515 1518 1520 1523 1525 1527 1528 1530 1532 1533 1534 1536 1536 1537 1538 1538 1539 1539 1539 1539 1539 1539 1539 1539 1538 1538 1538 1538 1539 1540 1541 1540 1541 1540 1540 1540 1539 1538
1495 1500 1504 1507 1510 1513 1516 1518 1520 1522 1524 1526 1527 1529 1531 1533 1534 1535 1535 1536 1536 1537 1537 1537 1537 1538 1538 1537 1537 1537 1537 1537 1537 1538 1538 1539 1539 1539 1539 1538 1538 1538 1537
1492 1497 1501 1504 1508 1511 1513 1516 1517 1519 1521 1523 1525 1527 1529 1530 1532 1533 1533 1534 1534 1535 1535 1536 1536 1536 1536 1536 1536 1536 1536 1536 1536 1536 1536 1537 1537 1537 1537 1537 1536 1536 1536
1489 1494 1498 1501 1505 1508 1511 1513 1515 1516 1519 1521 1523 1525 1526 1528 1529 1530 1531 1532 1532 1532 1533 1533 1533 1534 1534 1534 1534 1534 1535 1534 1534 1535 1535 1535 1535 1536 1535 1535 1535 1534 1534
1487 1491 1495 1498 1502 1506 1508 1510 1512 1514 1516 1518 1520 1522 1524 1525 1527 1528 1529 1530 1530 1531 1531 1531 1531 1532 1533 1533 1533 1533 1533 1533 1533 1533 1533 1533 1534 1534 1534 1534 1533 1532 1532
1484 1489 1493 1496 1499 1502 1505 1508 1509 1511 1513 1516 1518 1520 1521 1523 1524 1526 1527 1528 1529 1530 1530 1530 1530 1530 1531 1531 1532 1531 1531 1531 1531 1531 1531 1531 1531 1532 1532 1532 1532 1532 1530
1484 1487 1491 1494 1497 1499 1503 1505 1507 1509 1511 1513 1515 1517 1518 1520 1522 1523 1525 1526 1527 1528 1528 1528 1528 1529 1529 1530 1530 1530 1530 1530 1529 1529 1529 1529 1529 1529 1529 1529 1529 1529 1529
1482 1486 1489 1492 1495 1498 1500 1503 1505 1507 1509 1511 1512 1514 1516 1518 1519 1521 1522 1523 1524 1525 1526 1526 1526 1527 1527 1528 1528 1528 1528 1528 1528 1528 1527 1527 1527 1527 1526 1527 1527 1526 1526
1482 1485 1488 1491 1494 1496 1498 1500 1503 1504 1506 1508 1510 1512 1514 1516 1517 1518 1519 1521 1522 1523 1524 1524 1524 1525 1525 1526 1526 1526 1526 1526 1526 1526 1525 1525 1525 1524 1524 1524 1524 1523 1523
1482 1484 1487 1490 1493 1495 1497 1499 1501 1503 1504 1506 1508 1510 1512 1513 1514 1515 1516 1518 1519 1520 1521 1521 1522 1522 1523 1523 1524 1524 1524 1524 1524 1523 1523 1523 1523 1522 1522 1521 1521 1520 1520
1481 1484 1487 1489 1492 1494 1495 1497 1499 1501 1502 1504 1505 1507 1508 1510 1511 1513 1513 1515 1516 1517 1518 1519 1519 1520 1520 1521 1521 1521 1521 1521 1521 1521 1521 1521 1521 1520 1519 1519 1518 1518 1517
1481 1484 1486 1488 1490 1492 1494 1495 1497 1499 1500 1501 1503 1504 1506 1507 1509 1510 1511 1512 1513 1514 1515 1516 1516 1517 1517 1518 1518 1518 1519 1519 1519 1519 1519 1518 1518 1518 1517 1517 1516 1515 1514
1482 1483 1485 1487 1489 1491 1492 1493 1495 1496 1497 1499 1500 1502 1503 1505 1506 1508 1509 1510 1511 1511 1512 1512 1513 1514 1515 1515 1515 1516 1516 1516 1516 1516 1516 1516 1515 1515 1514 1514 1513 1512 1511
1481 1483 1485 1486 1486 1488 1490 1491 1492 1494 1495 1497 1498 1500 1501 1502 1503 1505 1506 1507 1508 1508 1509 1510 1510 1511 1511 1512 1513 1513 1513 1513 1513 1513 1513 1514 1513 1512 1512 1511 1510 1509 1508
1480 1482 1483 1484 1485 1486 1488 1489 1491 1492 1493 1495 1496 1498 1499 1500 1501 1502 1503 1504 1505 1506 1506 1507 1508 1508 1508 1509 1509 1510 1510 1510 1510 1510 1510 1510 1510 1510 1509 1508 1507 1506 1506
1479 1481 1482 1483 1484 1485 1486 1487 1488 1490 1491 1492 1493 1495 1496 1497 1498 1499 1500 1501 1502 1503 1503 1504 1504 1504 1505 1505 1506 1506 1506 1507 1507 1507 1507 1507 1507 1507 1506 1506 1504 1503 1503
1479 1480 1481 1481 1482 1483 1484 1485 1486 1487 1489 1490 1491 1492 1493 1494 1495 1496 1497 1498 1499 1500 1500 1501 1501 1501 1501 1502 1502 1503 1503 1503 1504 1504 1504 1504 1504 1503 1503 1503 1502 1501 1500
1478 1479 1480 1480 1481 1481 1483 1484 1484 1485 1486 1488 1488 1489 1490 1491 1492 1493 1494 1495 1496 1496 1497 1497 1497 1497 1498 1498 1499 1500 1500 1501 1501 1501 1501 1501 1501 1500 1500 1500 1499 1499 1498
1478 1479 1479 1479 1480 1481 1481 1481 1482 1483 1484 1485 1486 1486 1487 1488 1489 1490 1491 1492 1493 1493 1493 1494 1494 1495 1494 1494 1495 1496 1497 1498 1498 1498 1498 1498 1498 1497 1497 1496 1496 1496 1495
1478 1479 1479 1479 1479 1479 1479 1480 1481 1481 1482 1482 1483 1484 1484 1485 1486 1486 1487 1488 1489 1489 1490 1491 1491 1492 1492 1492 1493 1493 1494 1494 1494 1495 1495 1494 1494 1494 1493 1493 1493 1493 1492
1477 1478 1478 1478 1478 1478 1478 1478 1479 1479 1480 1480 1481 1481 1482 1482 1483 1484 1484 1485 1486 1486 1487 1488 1488 1488 1489 1490 1490 1490 1490 1491 1491 1491 1491 1491 1491 1491 1490 1490 1490 1489 1489
1476 1476 1476 1477 1477 1477 1477 1477 1477 1477 1477 1478 1478 1479 1479 1479 1480 1480 1481 1482 1482 1483 1484 1484 1485 1485 1486 1486 1487 1487 1487 1487 1487 1487 1487 1487 1487 1487 1487 1487 1487 1487 1487
1474 1474 1474 1474 1475 1475 1474 1475 1475 1475 1475 1476 1476 1476 1477 1477 1477 1477 1478 1478 1479 1480 1480 1481 1482 1482 1483 1483 1484 1484 1484 1484 1484 1484 1484 1484 1484 1484 1484 1484 1484 1484 1484